sat.trackr.live / text

‹ back to catalog

YAOGAN-36 02C

NORAD 54045 · 2022-133D

PAYLOAD ACTIVE UNKNOWN

§ Identity

Operator
Country
PRC
Launch date
2022-10-14
Launch site
XICLF
Launch vehicle
Mass (kg)
RCS (m²)

External: N2YO · Heavens-Above · Gunter

§ Orbital elements

Epoch: 2026-05-24T15:23:19.091616Z

Period
93.09 min
Inclination
34.9893°
Eccentricity
0.0006397
Mean motion
15.46895557 rev/d
Perigee alt
421.5 km
Apogee alt
430.2 km
Semi-major
6,804.0 km
B*
5.3336e-4
RAAN
227.4306°
Arg perigee
359.7861°
Mean anomaly
0.2857°
Rev number
20,157

§ Raw data

YAOGAN-36 02C1 54045U 22133D   26144.64119319  .00027718  00000+0  53336-3 0  99972 54045  34.9893 227.4306 0006397 359.7861   0.2857 15.46895557201576

JSON: /api/v1/satellites/54045 · /tle

For live sub-satellite position, see the globe view (requires WebGL).

§ Visibility from observer

Set your observer location to see the next 7 days of passes ≥ 10°. The values pass through the URL so the page stays shareable.

No JS? Fill the form by hand. The geolocation button needs JavaScript.